Regional Weather Roundup
Issued by NWS Little Rock, AR

Home | Current Version | Previous Version | Graphics & Text | Print | Product List | Glossary On
Versions: 1 2 3 4 5 6 7 8 9 10 11 12 13 14 15 16 17 18 19 20 21 22 23 24 25 26 27 28 29 30 31 32 33 34 35 36
000
ASUS44 KLZK 220705
RWRLZK

WEATHER ROUNDUP FOR ARKANSAS
NATIONAL WEATHER SERVICE LITTLE ROCK AR
200 AM CDT WED OCT 22 2014

NOTE: "FAIR" INDICATES FEW OR NO CLOUDS BELOW 12,000 FEET WITH NO
SIGNIFICANT WEATHER AND/OR OBSTRUCTIONS TO VISIBILITY.

ARZ001-003-010-029-220800-
NORTHWEST ARKANSAS

CITY           SKY/WX    TMP DP  RH WIND       PRES   REMARKS
FAYETTEVILLE   PTCLDY    48  48 100 CALM      30.14R FOG
FORT SMITH     CLEAR     58  56  93 E5        30.10S
HARRISON       CLEAR     53  49  86 CALM      30.14R
BENTONVILLE    CLEAR     55  48  76 E5        30.13S
ROGERS         CLEAR     56  51  84 SE7       30.14R
SILOAM SPGS    CLOUDY    55  48  76 E3        30.13S
HIGHFILL       CLEAR     53  51  93 CALM      30.12S FOG
$$

ARZ004-005-016-220800-
NORTH CENTRAL ARKANSAS

CITY           SKY/WX    TMP DP  RH WIND       PRES   REMARKS
BATESVILLE     CLEAR     48  46  93 NW3       30.15R
FLIPPIN        CLEAR     46  43  87 CALM      30.16R
MTN HOME       CLEAR     52  46  80 E5        30.14S
$$

ARZ040-041-220800-
WEST CENTRAL ARKANSAS

CITY           SKY/WX    TMP DP  RH WIND       PRES   REMARKS
MENA             N/A     55  54  94 CALM      30.13S VSB 1/2
MOUNT IDA      PTCLDY    53  51  93 CALM      30.10S FOG
$$

ARZ009-017-025-026-028-220800-
NORTHEAST ARKANSAS

CITY           SKY/WX    TMP DP  RH WIND       PRES   REMARKS
CORNING        FAIR      50  46  87 N7        30.18R
JONESBORO      CLEAR     55  48  77 NE9       30.15R
NEWPORT        CLEAR     49  47  93 N8        30.15R
WALNUT RIDGE   CLEAR     52  43  71 N5        30.16R
BLYTHEVILLE    CLEAR     50  47  89 NE3       30.15R
$$

ARZ022-023-033-042-044-220800-
CENTRAL ARKANSAS

CITY           SKY/WX    TMP DP  RH WIND       PRES   REMARKS
LITTLE ROCK    CLEAR     56  51  84 CALM      30.11S
N LITTLE ROCK    N/A     58  50  74 NE2       30.11S
JACKSONVILLE   CLEAR     50  47  90 CALM      30.11S
SEARCY         CLEAR     54  48  80 N5        30.14R
HOT SPRINGS    CLEAR     53  51  93 CALM      30.12S
RUSSELLVILLE   CLEAR     52  50  93 CALM      30.12R
$$

ARZ036-220800-
EAST ARKANSAS

CITY           SKY/WX    TMP DP  RH WIND       PRES   REMARKS
WEST MEMPHIS   CLEAR     52  47  83 NE5       30.11S
$$

ARZ050-053-066-070-073-220800-
SOUTHWEST ARKANSAS

CITY           SKY/WX    TMP DP  RH WIND       PRES   REMARKS
ARKADELPHIA    FAIR      54  54 100 CALM      30.12R FOG
CAMDEN         FOG       52  50  93 CALM      30.10R VSB 3/4
TEXARKANA      CLEAR     60  58  92 CALM      30.09R
EL DORADO      CLEAR     57  55  93 CALM      30.10R
DE QUEEN       CLEAR     61  61 100 CALM      30.08S FOG
$$

ARZ056-057-069-220800-
SOUTHEAST ARKANSAS

CITY           SKY/WX    TMP DP  RH WIND       PRES   REMARKS
PINE BLUFF     CLEAR     53  49  86 CALM      30.11R
STUTTGART      CLEAR     54  46  76 N3        30.11R
MONTICELLO     CLEAR     53  51  93 CALM      30.10R

$$





USA.gov is the U.S. government's official web portal to all federal, state and local government web resources and services.